Regional Weather Roundup
Issued by NWS Green Bay, WI

Home | Current Version | Previous Version | Graphics & Text | Print | Product List | Glossary Off
Versions: 1 2 3 4 5 6 7 8 9 10 11 12 13 14 15 16 17 18 19 20 21 22 23 24 25 26 27 28 29 30 31 32 33 34 35 36 37 38 39 40 41 42 43 44 45 46 47 48 49 50

000
ASUS43 KGRB 281411
RWRGRB

NORTH-CENTRAL AND NORTHEAST WISCONSIN REGIONAL WEATHER ROUNDUP
NATIONAL WEATHER SERVICE GREEN BAY WI
900 AM CDT THU JUL 28 2016

WIZ005-009-010>012-018-019-281500-
NORTH CENTRAL WISCONSIN

CITY           SKY/WX    TMP DP  RH WIND       PRES   REMARKS
IRONWOOD       SUNNY     64  55  72 E7        30.04S
MANITOWISH WTR SUNNY     64  58  79 NE8       30.06R
ARBOR VITAE    SUNNY     64  56  73 NE6       30.05S
EAGLE RIVER    SUNNY     65  54  69 NE7       30.05S
LAND O LAKES   SUNNY     64  55  72 NE6       30.06F
RHINELANDER    CLOUDY    63  56  78 NE8       30.05S
PHILLIPS       PTSUNNY   64  57  78 NE7       30.04R
ANTIGO         CLOUDY    60  59  97 CALM      30.04R
TOMAHAWK       CLOUDY    61  58  87 NE8       30.05R
MERRILL        CLOUDY    61  61 100 E3        30.04S
$$

WIZ013-073-281500-
NORTHEAST WISCONSIN

CITY           SKY/WX    TMP DP  RH WIND       PRES   REMARKS
IRON MOUNTAIN  MOSUNNY   66  55  67 NE7       30.02F
MARINETTE      MIX PCPN N/A N/A N/A N6          N/A
OCONTO         CLOUDY   N/A N/A N/A N3        30.01S
$$

WIZ017-030-035>037-045-281500-
CENTRAL WISCONSIN

CITY           SKY/WX    TMP DP  RH WIND       PRES   REMARKS
MEDFORD        CLOUDY    61  61 100 NE9       30.02S
WAUSAU         LGT RAIN  60  59  96 NE8       30.01R FOG
MOSINEE        NOT AVBL
MARSHFIELD     CLOUDY    62  59  90 E13       29.99S
WISC RAPIDS    CLOUDY    64  60  87 E12       29.99S
STEVENS POINT  LGT RAIN  59  59  99 NE9       30.01S
WAUPACA        CLOUDY    66  65  96 NE5       30.00S
SHAWANO        CLOUDY    63  60  90 NE9       30.02S
CLINTONVILLE   CLOUDY    61  59  94 NE7       30.01R
WAUTOMA        CLOUDY    66  62  87 NE14G20   29.98S
$$

WIZ038-039-048-051-281500-
FOX VALLEY

CITY           SKY/WX    TMP DP  RH WIND       PRES   REMARKS
NWS GREEN BAY  CLOUDY    65  64  97 NE12      30.00R
APPLETON       CLOUDY    64  61  88 NE12G17   29.99R
OSHKOSH        LGT RAIN  66  61  84 NE9       29.97F
FOND DU LAC    CLOUDY    68  62  81 E9        29.97S
$$

WIZ022-050-052-281500-
EAST CENTRAL WISCONSIN

CITY           SKY/WX    TMP DP  RH WIND       PRES   REMARKS
EPHRAIM        CLOUDY    63  61  94 NE6       30.01S
WASHINGTON ISL NOT AVBL
STURGEON BAY   CLOUDY    64  62  93 NE6       30.02S
MANITOWOC      LGT RAIN  65  61  87 N7        29.99S
SHEBOYGAN      CLOUDY    67  61  81 NE16      29.97S
$$

LMZ563-521-522-541>543-281500-
LAKESHORE

STATION/POSITION TIME  TEMP    WIND        PRES    VSBY  WAVE
                       AIR SEA DIR/SP/G                  HT/PER
                 (UTC) (F)     (DEG/KT/KT) (MB)    (MI)  (FT/S)
SHEBOYGAN LKSHOR 1400   59     350/ 16/ 17 1015.0R
KEWAUNEE LKSHORE 1300   63      40/  9/ 11 1015.1S
ALGOMA MARINA    1313           50/ 13/ 18   N/A
NORTHPORT PIER   1300   65      40/  7/  8 1016.3S
N MID LAKE BUOY  1350   65 69   60/ 12/ 16 1015.4F         1/ 4
SISTER BAY LKSHO 1306   64        CALM       N/A
CHAMBERS ISLAND  1340   66      40/  9/ 12 1016.3S
MENOMINEE LKSHOR 1300   64      20/ 12/ 14 1015.4R
$$



USA.gov is the U.S. government's official web portal to all federal, state and local government web resources and services.